FLYING LAPTOP (42831 NORAD) Tracking and Keplerian Element Data

This shows tracking and keplerian element data for the satellite.

Feedback or suggestion? Click here.




ElementValue
Catalog42831
NameFLYING LAPTOP
Epoch Orbit22759
Epoch Day261.75837538
Epoch Year2021
RAAN126.5259
Inclination97.4566
Eccentricity0.0013479
Argument of Perigee190.1012
Mean Anonmoly169.9959
Mean Motion14.91344617
Decay Rate-2.91E-06
L11 42831U 17042G 21261.75837538 -.00000291 00000-0 -23972-4 0 9991
L22 42831 97.4566 126.5259 0013479 190.1012 169.9959 14.91344617227598

Live tracking and technical data element details for FLYING LAPTOP (NORAD 42831). FLYING LAPTOP can be tracked NOW for your location showing map with azimuth and elevation plus other details from your city location.

Track the satellite on the map from your city or location and see movement details for azimuth, elevation, latitude, longitude, range, height, and movement on the map or in text.







IsCatalogInMostPopularTable: catalog: 42831, numindb: 585
Update: records affected: 1



GetName: 42831 FLYING LAPTOP

Hit Count: updated at: Fri, 24 Sep 2021 18:24:10 GMT